Total_Precipitation_Accumulation
1.70 1.65 1.67 1.62 1.55 1.43 1.33 1.24 1.18 1.12 1.07 1.05 1.03 1.01 1.00 1.00 0.98 1.02 1.00 1.02 1.07 1.09 1.09 1.08 1.07 1.09 1.13 1.11 1.18 1.30 1.46 1.66 1.77 1.59 1.43 1.33 1.28 1.31 1.34 1.22 1.15 1.07 0.99
1.36 1.48 1.59 1.49 1.41 1.33 1.26 1.18 1.12 1.00 0.95 0.95 0.97 0.92 0.84 0.82 0.89 0.96 0.98 0.96 1.04 1.04 1.04 1.08 1.06 1.08 1.09 1.07 1.12 1.18 1.34 1.55 1.70 1.74 1.57 1.43 1.36 1.31 1.29 1.20 0.99 0.91 0.93
1.11 1.15 1.27 1.31 1.27 1.23 1.10 1.01 0.97 0.93 0.92 0.91 0.87 0.85 0.83 0.79 0.81 0.82 0.83 0.84 0.90 0.97 1.00 1.06 1.08 1.10 1.08 1.07 1.11 1.16 1.29 1.42 1.59 1.66 1.59 1.49 1.42 1.34 1.38 1.26 1.12 1.18 1.01
0.98 1.06 1.10 1.11 1.12 1.13 1.04 0.94 0.90 0.87 0.84 0.82 0.77 0.76 0.81 0.80 0.72 0.67 0.69 0.73 0.81 0.84 0.85 0.96 1.02 1.04 1.03 1.09 1.12 1.16 1.25 1.41 1.52 1.57 1.50 1.41 1.38 1.37 1.43 1.43 1.36 1.31 1.20
0.90 0.98 1.08 1.01 0.96 1.03 1.07 0.96 0.86 0.83 0.79 0.79 0.74 0.69 0.74 0.72 0.65 0.66 0.66 0.67 0.73 0.73 0.75 0.82 0.87 0.88 0.87 0.93 0.95 1.05 1.18 1.34 1.43 1.50 1.47 1.41 1.35 1.44 1.46 1.40 1.36 1.35 1.23
0.83 0.95 1.02 1.01 0.99 1.03 1.08 1.03 0.96 0.89 0.86 0.82 0.76 0.71 0.71 0.66 0.65 0.61 0.59 0.62 0.69 0.75 0.81 0.82 0.76 0.76 0.72 0.69 0.75 0.85 1.02 1.23 1.41 1.49 1.44 1.42 1.36 1.40 1.50 1.48 1.46 1.47 1.43
0.88 0.90 0.96 1.02 1.08 1.10 1.08 1.05 1.01 0.99 0.97 0.87 0.77 0.74 0.71 0.64 0.57 0.48 0.47 0.53 0.68 0.80 0.86 0.84 0.72 0.68 0.77 0.76 0.76 0.79 0.92 1.05 1.27 1.49 1.54 1.42 1.39 1.44 1.57 1.63 1.56 1.54 1.50
0.92 0.89 0.86 0.89 0.92 0.92 0.98 1.03 1.00 0.97 0.91 0.85 0.78 0.73 0.68 0.52 0.46 0.44 0.46 0.50 0.59 0.65 0.68 0.75 0.83 0.85 0.78 0.79 0.78 0.88 0.97 1.07 1.15 1.28 1.46 1.39 1.34 1.42 1.53 1.56 1.51 1.45 1.38
0.86 0.82 0.75 0.71 0.75 0.76 0.83 0.94 1.01 0.97 0.87 0.79 0.72 0.69 0.65 0.52 0.48 0.46 0.48 0.53 0.58 0.55 0.51 0.56 0.63 0.67 0.68 0.75 0.84 1.00 1.04 1.15 1.17 1.33 1.36 1.30 1.30 1.33 1.28 1.31 1.53 1.64 1.54
0.76 0.69 0.64 0.63 0.67 0.68 0.74 0.85 0.91 0.92 0.81 0.67 0.60 0.60 0.57 0.56 0.50 0.44 0.43 0.47 0.55 0.52 0.55 0.61 0.61 0.54 0.58 0.71 0.88 1.08 1.22 1.26 1.34 1.52 1.50 1.48 1.39 1.35 1.24 1.25 1.53 1.72 1.67
0.60 0.59 0.61 0.65 0.69 0.67 0.74 0.82 0.80 0.74 0.73 0.66 0.61 0.60 0.54 0.46 0.41 0.35 0.36 0.41 0.47 0.52 0.59 0.68 0.69 0.60 0.55 0.62 0.81 1.01 1.17 1.21 1.43 1.68 1.57 1.41 1.37 1.33 1.28 1.27 1.39 1.48 1.44
0.59 0.62 0.66 0.65 0.62 0.60 0.72 0.78 0.71 0.69 0.69 0.67 0.65 0.60 0.50 0.40 0.34 0.29 0.27 0.29 0.33 0.52 0.67 0.67 0.67 0.64 0.61 0.69 0.83 0.99 1.12 1.28 1.47 1.59 1.39 1.23 1.15 1.13 1.16 1.10 1.06 1.07 1.12
0.57 0.65 0.67 0.62 0.68 0.68 0.65 0.65 0.65 0.67 0.60 0.55 0.55 0.52 0.48 0.43 0.37 0.28 0.24 0.25 0.30 0.44 0.60 0.64 0.61 0.59 0.70 0.91 1.03 1.12 1.27 1.46 1.51 1.38 1.25 1.13 1.03 1.05 1.01 0.97 0.94 0.97 0.96
0.61 0.63 0.61 0.64 0.74 0.72 0.63 0.54 0.52 0.52 0.48 0.45 0.46 0.45 0.47 0.46 0.36 0.31 0.31 0.32 0.35 0.42 0.54 0.67 0.73 0.75 0.92 1.12 1.26 1.35 1.44 1.50 1.36 1.24 1.16 1.05 0.92 0.99 1.01 0.96 1.03 1.05 1.03
0.56 0.59 0.59 0.60 0.65 0.68 0.58 0.46 0.43 0.37 0.30 0.30 0.32 0.34 0.41 0.40 0.29 0.27 0.30 0.33 0.38 0.42 0.50 0.69 0.84 0.89 1.02 1.17 1.30 1.36 1.40 1.40 1.32 1.20 1.11 1.02 0.93 0.93 0.90 0.83 0.90 0.95 0.98
0.53 0.51 0.46 0.49 0.50 0.52 0.52 0.46 0.31 0.19 0.14 0.13 0.14 0.19 0.23 0.24 0.21 0.20 0.23 0.29 0.34 0.44 0.58 0.86 0.94 0.93 0.98 1.08 1.19 1.28 1.27 1.24 1.18 1.17 1.15 1.11 1.02 0.90 0.87 0.82 0.81 0.86 0.94
0.49 0.48 0.40 0.38 0.41 0.42 0.43 0.49 0.44 0.26 0.13 0.10 0.09 0.12 0.14 0.15 0.18 0.19 0.21 0.26 0.33 0.46 0.64 0.85 0.94 0.99 1.03 1.06 1.08 1.11 1.16 1.17 1.11 1.09 1.08 1.02 0.93 0.85 0.82 0.82 0.81 0.83 0.84
0.36 0.32 0.33 0.39 0.39 0.37 0.35 0.34 0.38 0.43 0.38 0.28 0.17 0.14 0.15 0.17 0.20 0.20 0.22 0.28 0.36 0.43 0.62 0.79 0.90 0.97 1.02 1.05 1.04 1.00 1.03 1.06 1.01 0.94 0.93 0.91 0.86 0.83 0.81 0.81 0.79 0.74 0.71
0.32 0.30 0.31 0.33 0.32 0.28 0.25 0.25 0.28 0.34 0.36 0.36 0.31 0.23 0.20 0.21 0.23 0.24 0.28 0.37 0.45 0.48 0.55 0.67 0.78 0.86 0.87 0.87 0.91 0.92 0.96 0.99 0.93 0.88 0.89 0.90 0.88 0.83 0.76 0.67 0.61 0.52 0.55
0.22 0.20 0.24 0.27 0.25 0.22 0.22 0.23 0.25 0.29 0.32 0.32 0.34 0.32 0.27 0.36 0.46 0.42 0.38 0.43 0.48 0.49 0.53 0.63 0.71 0.73 0.72 0.68 0.69 0.73 0.78 0.80 0.81 0.83 0.83 0.79 0.75 0.70 0.63 0.55 0.53 0.53 0.56
0.18 0.19 0.20 0.20 0.18 0.18 0.19 0.19 0.17 0.22 0.27 0.31 0.28 0.26 0.37 0.46 0.54 0.51 0.49 0.54 0.58 0.56 0.55 0.58 0.61 0.63 0.63 0.60 0.58 0.57 0.61 0.66 0.68 0.70 0.73 0.72 0.65 0.59 0.53 0.48 0.46 0.44 0.45
0.16 0.19 0.18 0.16 0.16 0.15 0.15 0.15 0.16 0.19 0.24 0.28 0.28 0.28 0.39 0.44 0.48 0.51 0.53 0.59 0.63 0.61 0.58 0.58 0.59 0.59 0.59 0.57 0.53 0.52 0.54 0.59 0.61 0.62 0.61 0.58 0.55 0.51 0.43 0.39 0.38 0.38 0.39
0.15 0.18 0.18 0.15 0.13 0.13 0.13 0.14 0.15 0.18 0.22 0.25 0.28 0.31 0.36 0.46 0.50 0.55 0.62 0.64 0.65 0.68 0.63 0.57 0.63 0.65 0.57 0.50 0.46 0.44 0.45 0.47 0.47 0.51 0.59 0.58 0.51 0.45 0.40 0.35 0.34 0.35 0.36
0.15 0.15 0.16 0.16 0.15 0.14 0.14 0.13 0.12 0.12 0.16 0.20 0.24 0.24 0.28 0.35 0.43 0.47 0.55 0.61 0.67 0.71 0.69 0.67 0.70 0.63 0.51 0.44 0.40 0.39 0.41 0.44 0.44 0.46 0.48 0.51 0.47 0.40 0.35 0.32 0.32 0.34 0.37
0.13 0.14 0.14 0.13 0.12 0.12 0.12 0.11 0.10 0.11 0.14 0.15 0.16 0.18 0.21 0.25 0.29 0.33 0.40 0.45 0.51 0.58 0.57 0.58 0.58 0.49 0.42 0.38 0.36 0.37 0.42 0.41 0.38 0.42 0.47 0.50 0.43 0.38 0.34 0.31 0.30 0.32 0.33
0.11 0.10 0.10 0.10 0.09 0.09 0.09 0.09 0.09 0.10 0.12 0.13 0.13 0.15 0.19 0.22 0.25 0.29 0.32 0.34 0.37 0.43 0.46 0.49 0.47 0.38 0.31 0.29 0.29 0.28 0.27 0.23 0.23 0.28 0.39 0.43 0.37 0.32 0.34 0.33 0.29 0.32 0.36